Regional Weather Roundup
Issued by NWS Austin/San Antonio, TX

Home | Current Version | Previous Version | Text Only | Print | Product List | Glossary On
Versions: 1 2 3 4 5 6 7 8 9 10 11 12 13 14 15 16 17 18 19 20 21 22 23 24 25 26 27 28 29 30 31 32 33 34 35 36 37 38 39 40 41 42 43 44 45 46 47 48 49 50
539
ASUS44 KEWX 230710
RWREWX
SOUTH TEXAS REGIONAL WEATHER ROUNDUP
NATIONAL WEATHER SERVICE AUSTIN/SAN ANTONIO TX
200 AM CDT MON OCT 23 2017

NOTE: "FAIR" INDICATED FEW OR NO CLOUDS BELOW 12,000 FEET WITH NO
SIGNIFICANT WEATHER AND/OR OBSTRUCTIONS TO VISIBILITY.

* - THESE STATIONS ARE NOT NWS OR FAA STATIONS...AND ARE NOT SUBJECT
    TO NWS AND FAA QUALITY CONTROL.

TXZ171-172-183>190-230800-
TEXAS HILL COUNTRY AND EDWARDS PLATEAU

CITY           SKY/WX    TMP DP  RH WIND       PRES   REMARKS
JUNCTION       CLEAR     46  40  79 W3        30.20F
*LLANO         CLEAR     46  45  93 CALM      30.22S
BURNET         CLEAR     56  41  57 N5        30.19F
*HORSESHOE BAY CLEAR     48  48  97 S3        30.18S
*KERRVILLE     CLEAR     48  45  90 CALM      30.20S
*FREDERICKSBRG CLEAR     46  43  90 N5        30.19F WCI  43
*ROCKSPRINGS   NOT AVBL
*BOERNE STAGE  CLEAR     46  43  87 CALM      30.20R
*CASTROVILLE   CLEAR     52  45  77 NW6       30.19F
HONDO          CLEAR     52  45  77 N7        30.18S
*UVALDE        CLEAR     54  45  69 CALM      30.20R
DEL RIO        CLEAR     57  50  77 E5        30.16F
LAUGHLIN AFB   CLEAR     57  49  76 SE8       30.17S
CARRIZO SPRGS  CLEAR     57  50  77 S5        30.17S
*EAGLE PASS    NOT AVBL
$$

TXZ173-191>194-202-209-217>225-228-230800-
CENTRAL AND SOUTH CENTRAL TEXAS

CITY           SKY/WX    TMP DP  RH WIND       PRES   REMARKS
GEORGETOWN     PTCLDY    51  46  83 CALM      30.19S
AUSTIN/BERGSTM CLEAR     50  50 100 CALM      30.17S
AUSTIN/MABRY   PTCLDY    54  50  86 CALM      30.18S
*AUSTIN/EXEC   HAZE      55  48  76 CALM      30.17F VSB<1/4
*LAGO VISTA    CLEAR     59  44  58 NE8       30.18S
SAN MARCOS     CLEAR     51  46  83 N8        30.17F
NEW BRAUNFELS  CLEAR     51  46  83 CALM      30.15F
RANDOLPH AFB   CLEAR     55  48  76 CALM      30.18S
PT SAN ANTONIO CLEAR     52  49  87 CALM      30.15F
SAN ANTONIO    CLEAR     56  49  77 NW5       30.18S
STINSON FIELD  CLEAR     58  51  78 CALM      30.15F
*LA GRANGE     CLEAR     55  54  97 CALM      30.14S
*GIDDINGS      CLEAR     52  50  94 CALM      30.17S
*GONZALES      CLOUDY    60  52  73 NE3       30.15F
$$

TXZ163>164-176>182-195>201-210>213-226-227-235-230800-
SOUTHEAST TEXAS

CITY           SKY/WX    TMP DP  RH WIND       PRES   REMARKS
COLLEGE STN    CLEAR     54  47  77 CALM      30.15F
*BRYAN         CLEAR     51  49  93 CALM      30.17S
*CALDWELL      CLEAR     52  49  87 CALM      30.16F
*CROCKETT        N/A     46  46 100 CALM      30.18S
*BRENHAM       CLEAR     54  52  94 CALM      30.16F
HUNTSVILLE     CLEAR     51  47  86 CALM      30.15S
CONROE         CLEAR     50  50 100 CALM      30.14F
HOUSTON BUSH   CLEAR     60  51  72 N3        30.14S
HOUSTON HOBBY  CLEAR     61  52  72 N9        30.13S
*HOUSTON SW AP CLEAR     58  53  85 N3        30.14F
PEARLAND       CLEAR     60  53  77 CALM      30.15S
HOUSTON HOOKS  CLEAR     54  50  86 CALM      30.14F
ELLINGTON FLD  CLEAR     63  52  67 N5        30.14S
SUGAR LAND     CLEAR     56  52  86 NW3       30.14S
*HOUSTON EXEC  CLEAR     54  50  87 CALM      30.16S
*CLEVELAND MUN CLEAR     51  50  97 CALM      30.15S FOG
*WHARTON       CLEAR     56  51  82 N3        30.15F
*COLUMBUS      FAIR      57  53  86 N8        30.15F
*EAGLE LAKE    SUNNY     60  52  75 N12       30.14F
$$

TXZ214>216-236>238-230800-
THE UPPER TEXAS COAST

CITY           SKY/WX    TMP DP  RH WIND       PRES   REMARKS
*ORANGE        CLEAR     58  57  98 CALM      30.13F
PORT ARTHUR    CLEAR     57  55  93 W5        30.11S
GALVESTON      CLEAR     69  56  62 N17       30.13S
ANGLETON       CLEAR     58  55  90 CALM      30.14R
*BAY CITY      CLEAR     59  54  84 N6        30.13S
PALACIOS       CLEAR     57  56  96 CALM      30.14S
$$

TXZ229>234-239>247-230800-
TEXAS COASTAL BEND AND RIO GRANDE PLAINS

CITY           SKY/WX    TMP DP  RH WIND       PRES   REMARKS
VICTORIA       CLEAR     54  52  93 CALM      30.15F
*BEEVILLE      CLEAR     55  55 100 NE3       30.15S
ROCKPORT       CLEAR     62  60  93 N5        30.14S
*PORT ARANSAS  NOT AVBL
*PORT LAVACA   CLEAR     58  56  92 W3        30.15S
*INGLESIDE     NOT AVBL
CORPUS CHRISTI CLEAR     60  58  92 W3        30.15S
CORPUS NAS     CLEAR     71  61  70 NE9       30.13F
*ROBSTOWN      CLEAR     61  57  88 CALM      30.15S
ALICE          CLEAR     58  54  86 CALM      30.15S
KINGSVILLE NAS CLEAR     58  58 100 NW5       30.15S
COTULLA        CLEAR     60  48  64 SE5       30.16F
*FAITH RANCH   CLEAR     57  52  82 S5        30.17F
LAREDO         CLEAR     63  55  75 S3        30.18R
$$

TXZ248>255-230800-
DEEP SOUTH TEXAS

CITY           SKY/WX    TMP DP  RH WIND       PRES   REMARKS
BROWNSVILLE    CLOUDY    76  72  87 N8        30.11F
PORT ISABEL    CLOUDY    76  66  71 NE8       30.11S
*SOUTH PADRE   NOT AVBL
HARLINGEN      CLOUDY    72  67  84 N9        30.12S
*HEBBRONVILLE  CLEAR     59  53  80 CALM      30.18S
MCALLEN        PTCLDY    74  65  73 NE9       30.14S
*WESLACO       CLEAR     69  65  84 NE6       30.13S
FALFURRIAS     CLEAR     61  58  91 CALM      30.16S
EDINBURG       PTCLDY    69  65  86 NE3       30.15S
*ZAPATA        CLEAR     63  60  91 CALM      30.16S
$$

TXZ213>215-236>238-242>244-246-247-251-254-255-230800-
CMAN STATIONS

STATION/POSITION TIME  TEMP    WIND        PRES    WAVE
                       AIR SEA DIR/SP/G            HT/PER
                 (UTC) (F)     (DEG/KT/KT) (MB)    (FT/S)
SABINE PASS      0642   67 77  360/ 13/ 16 1021.1
SEA RIM ST PARK  0700   60     320/  4/  5 1020.5
NORTH JETTY/GLS  0648           10/ 14/ 16   N/A
EAGLE POINT      0642   67 75   20/ 10/ 13 1020.3
MORGANS POINT    0642   64 76  350/  8/ 10 1020.1
PORT O`CONNOR    0642   72 75   10/ 16/ 19 1020.3
MALAQUITE BEACH  0642   73 80  360/  8/ 10 1020.2
BAFFIN BAY       0642   73 79   10/  9/ 12 1020.9
PORT ISABEL      0642   76 81   20/ 13/ 19 1019.3
$$




USA.gov is the U.S. government's official web portal to all federal, state and local government web resources and services.